Regional Weather Roundup
Issued by NWS

Home | Current Version | Previous Version | Graphics & Text | Print | Product List | Glossary On
Versions: 1 2 3 4 5 6 7 8 9 10 11 12 13 14 15 16 17 18 19 20 21 22 23 24 25 26 27 28 29 30 31 32 33 34 35 36 37 38 39 40 41 42 43 44 45 46 47 48 49 50
623
ASUS44 KJAN 220410
RWRMS

MISSISSIPPI HOURLY WEATHER ROUNDUP
NATIONAL WEATHER SERVICE JACKSON MS
1100 PM CDT SUN SEP 21 2014

NOTE: "FAIR: INDICATES FEW OR NO CLOUDS BELOW 12,000 FEET WITH NO
SIGNIFICANT WEATHER AND/OR OBSTRUCTIONS TO VISIBILITY.

MSZ001>002-007>008-010>013-018>021-025>028-034>036-220500-
NORTHWEST MISSISSIPPI

CITY           SKY/WX    TMP DP  RH WIND       PRES   REMARKS
CLARKSDALE       N/A     73  59  60 N9        30.07R
CLEVELAND      FAIR      78  71  77 N17       30.04R
GREENWOOD      CLOUDY    77  71  82 NW3       30.02R
GREENVILLE     CLOUDY    80  71  74 N10       30.03R
GRENADA        CLOUDY    77  70  78 N6        30.03R
OLIVE BRANCH   CLEAR     66  57  72 N7        30.08S
OXFORD         FAIR      72  63  73 NE8       30.07S
TUNICA         PTCLDY    70  54  56 N7        30.08R
$$

MSZ003>006-009-014>017-022>024-029>033-037>039-220500-
NORTHEAST MISSISSIPPI

CITY           SKY/WX    TMP DP  RH WIND       PRES   REMARKS
COLUMBUS AFB   MOCLDY    76  70  80 N5        30.00R
CORINTH          N/A     72  54  53 NW5       30.06R
GOLDN TRIANGLE CLOUDY    75  66  73 NW5       30.01R
STARKVILLE     LGT RAIN  73  70  88 SE3       30.01R
TUPELO         PTCLDY    72  64  76 NE10      30.04R
$$

MSZ040-058-220500-
CENTRAL MISSISSIPPI

CITY           SKY/WX    TMP DP  RH WIND       PRES   REMARKS
JACKSON INTL   CLEAR     73  69  87 CALM      30.02S
JACKSON HAWKNS CLEAR     78  67  68 CALM      30.02S
MERIDIAN KEY   CLEAR     70  68  93 CALM      30.02R
MERIDIAN NAS   CLEAR     74  67  78 W3        30.01S
RAYMOND        FAIR      72  66  83 MISG      30.03S HAZE
VICKSBURG      CLEAR     72  69  90 CALM      30.03R
$$

MSZ059>079-220500-
SOUTH MISSISSIPPI

CITY           SKY/WX    TMP DP  RH WIND       PRES   REMARKS
BROOKHAVEN     FAIR      70  66  88 CALM      30.05S
COLUMBIA       FAIR      66  66 100 CALM      30.02R
HATTIESBURG    CLEAR     73  68  84 CALM      30.03R
MCCOMB         CLEAR     71  66  84 N5        30.04R
NATCHEZ        PTCLDY    73  70  88 CALM      30.04S
PINE BELT      CLEAR    N/A N/A N/A CALM      30.03S
$$

MSZ080>082-220500-
COASTAL MISSISSIPPI

CITY           SKY/WX    TMP DP  RH WIND       PRES   REMARKS
BILOXI         CLEAR     78  70  75 SE1       30.01S
PASCAGOULA     CLEAR     69  68  96 CALM      30.01S
GULFPORT       CLEAR     74  70  87 CALM      30.01R
$$



USA.gov is the U.S. government's official web portal to all federal, state and local government web resources and services.